Regional Weather Roundup
Issued by NWS

Home | Current Version | Previous Version | Text Only | Print | Product List | Glossary On
Versions: 1 2 3 4 5 6 7 8 9 10 11 12 13 14 15 16 17 18 19 20 21 22 23 24 25 26 27
000
ASUS42 KKEY 240510
RWRKEY

FLORIDA REGIONAL WEATHER ROUNDUP FOR THE FLORIDA KEYS
NATIONAL WEATHER SERVICE KEY WEST FLORIDA
100 AM EDT WED MAY 24 2017

...SOUTH FLORIDA AND THE KEYS...

CITY           SKY/WX    TMP DP  RH WIND       PRES   REMARKS
FORT MYERS     PTCLDY    80  73  79 S5        29.89F
SW REGIONAL AP PTCLDY    78  72  81 S7        29.89F
NAPLES         CLEAR     81  73  76 S6        29.90F
MIAMI          CLOUDY    82  74  76 S8        29.93F
WEST KENDALL   CLOUDY    81  73  76 S7        29.93F
HOMESTEAD      CLOUDY    80  77  90 S6        29.93F
MARATHON       MOCLDY    83  78  85 S9        29.93S HX  93
BOCA CHICA NAS PTCLDY    81  78  91 SE14      29.92S
KEY WEST INTL  CLEAR     82  77  84 SE16      29.92F HX  90

...INTERNATIONAL WEATHER...

CITY           SKY/WX    TMP DP  RH WIND       PRES   REMARKS
NASSAU BAHAMAS PTCLDY    82  68  61 SE7       29.96F
CANCUN MEXICO  PTCLDY    82  77  83 SE14      29.85F HX  91
COZUMEL MEXICO PTCLDY    82  77  83 SE7       29.86R HX  91

ADJACENT COASTAL WATERS...

STATION/POSITION TIME  SKY/WX   TEMP    WIND        PRES    WAVE
                                AIR SEA DIR/SP/G            HT/PER
                 (UTC)          (F)     (DEG/KT/KT) (MB)    (FT/S)
PULASKI SHOAL LI 0500            78      90/ 16/ 17 1012.3F
SAND KEY         0450            81     170/ 16/ 18 1013.7F
LONG KEY         0400            81 84  170/ 15/ 17 1013.7R
MOLASSES REEF    0400            81 81  140/ 14/ 15 1014.1S
FOWEY ROCKS      0400            80 81  170/ 17/ 19 1014.5R
Buoy 42097       0500                                 N/A     2/ 4

$$




USA.gov is the U.S. government's official web portal to all federal, state and local government web resources and services.